Hourly Data Report for October 28, 2016

All times are specified in Local Standard Time (LST). Add 1 hour to adjust for Daylight Saving Time where and when it is observed.

RESOLUTE BAY A
NUNAVUT

74°43'01.000" N
94°58'10.000" W
67.70 m
2403498
71924
YRB

Download Data

Hourly Data (October 2016)
Hourly Data Report for October 28, 2016
Temp Definition
°C
Dew Point Temp Definition
°C
Rel Hum Definition
%
Wind Dir Definition
10's deg

Wind Spd Definition
km/h
Visibility Definition
km
Stn Press Definition
kPa
Hmdx Definition


Wind Chill Definition


Weather Definition


TIME
00:00 Legend Double Dagger -19.5 -23.0 74 6 45 24.1 101.23   -34 Blowing Snow
01:00 Legend Double Dagger -17.3 -21.5 70 7 25 24.1 101.25   -28 Blowing Snow
02:00 Legend Double Dagger -17.7 -21.1 75 7 33 24.1 101.29   -30 Blowing Snow
03:00 Legend Double Dagger -18.9 -22.3 75 5 33 24.1 101.31   -32 Blowing Snow
04:00 Legend Double Dagger -16.7 -20.0 76 6 35 24.1 101.31   -29 LegendNANA
05:00 Legend Double Dagger -14.9 -17.8 79 5 48 8.1 101.26   -28 Blowing Snow
06:00 Legend Double Dagger -17.0 -20.1 77 2 33 16.1 101.27   -29 Blowing Snow
07:00 Legend Double Dagger -16.0 -19.3 76 4 39 16.1 101.24   -29 Blowing Snow
08:00 Legend Double Dagger -16.3 -19.0 80 4 43 19.3 101.20   -30 Blowing Snow
09:00 Legend Double Dagger -16.2 -19.2 78 2 53 4.0 101.16   -31 Blowing Snow
10:00 Legend Double Dagger -14.6 -17.6 78 5 60 4.0 101.14   -29 Blowing Snow
11:00 Legend Double Dagger -14.6 -18.1 75 5 57 4.0 101.18   -29 Blowing Snow
12:00 Legend Double Dagger -14.9 -18.4 75 5 55 4.0 101.19   -29 Blowing Snow
13:00 Legend Double Dagger -15.1 -19.1 72 4 49 6.4 101.21   -29 Blowing Snow
14:00 Legend Double Dagger -14.3 -18.5 71 5 56 8.1 101.19   -28 Blowing Snow
15:00 Legend Double Dagger -14.4 -18.7 70 5 57 16.1 101.23   -28 Blowing Snow
16:00 Legend Double Dagger -15.3 -19.1 73 4 58 24.1 101.22   -30 Blowing Snow
17:00 Legend Double Dagger -15.1 -19.1 72 5 55 24.1 101.24   -29 Blowing Snow
18:00 Legend Double Dagger -15.1 -18.8 74 4 63 24.1 101.25   -30 Blowing Snow
19:00 Legend Double Dagger -15.0 -18.5 75 4 57 24.1 101.27   -29 Blowing Snow
20:00 Legend Double Dagger -15.6 -19.4 73 4 49 24.1 101.28   -29 Blowing Snow
21:00 Legend Double Dagger -16.4 -20.3 72 3 52 24.1 101.26   -31 Blowing Snow
22:00 Legend Double Dagger -15.4 -19.4 72 3 59 24.1 101.27   -30 Blowing Snow
23:00 Legend Double Dagger -15.9 -20.2 70 3 63 24.1 101.21   -31 Blowing Snow

Notes on Data Quality.

Legend

  • E = Estimated
  • M = Missing
  • NA = Not Available
  • ‡ = Partner data that is not subject to review by the National Climate Archives
Date modified: